Location: Campillo
(40.8621°N, 4.2488°W)
Time: 15:28:06
(UTC+00:00)

Cosmos 158 Rocket - Visible Passes

Search period start: 25 September 2021 00:00
Search period end: 05 October 2021 00:00
Orbit: 698 x 793 km, 74.0° (Epoch: 24 September)

Date Brightness Start Highest point End Pass type
(mag) Time Alt. Az. Time Alt. Az. Time Alt. Az.
25 Sep 4.2 19:39:05 10° N 19:43:52 44° ENE 19:44:58 38° E visible
25 Sep 6.1 21:21:32 10° NW 21:24:47 20° W 21:24:47 20° W visible
26 Sep 5.1 18:55:57 10° N 18:59:54 23° ENE 19:02:32 15° E visible
26 Sep 4.9 20:37:00 10° NW 20:41:38 40° WSW 20:42:22 37° SW visible
27 Sep 3.8 19:53:03 10° NNW 19:58:03 84° WSW 20:00:03 36° SSE visible
28 Sep 4.1 19:09:28 10° N 19:14:18 48° ENE 19:17:52 17° SE visible
28 Sep 6.3 20:52:09 10° NW 20:55:25 18° W 20:57:43 13° SW visible
29 Sep 5.0 18:26:17 10° N 18:30:21 25° ENE 18:34:22 10° ESE visible
29 Sep 5.2 20:07:30 10° NW 20:12:00 36° WSW 20:15:44 14° SSW visible
30 Sep 4.0 19:23:29 10° NNW 19:28:26 76° WSW 19:33:18 10° SSE visible
01 Oct 4.0 18:39:52 10° N 18:44:42 52° ENE 18:49:27 10° SE visible
01 Oct 6.6 20:22:49 10° WNW 20:25:45 16° W 20:28:41 10° SW visible
02 Oct 5.5 19:37:59 10° NW 19:42:22 33° W 19:46:41 10° SSW visible
03 Oct 4.2 18:53:56 10° NNW 18:58:50 69° WSW 19:03:39 10° S visible
04 Oct 6.8 19:53:30 10° WNW 19:56:07 14° W 19:58:42 10° SW visible
